When you browse on this site, cookies collect data to enhance your experience and personalize the content and advertising you see.
Visit our Privacy Policy to learn more. By continuing to use the site, you agree to this use of cookies and data.
  • In Sweden
  • List of Countries
  • For 7 days
  • Water Temperature
  • Satellite Maps
  • Weather Map
  • Weather Widgets
  • user-avatar
    Login

    Hourly Weather Pleven

    Today, 21 November, Wednesday

    Time Temperature Precipitation Wind Pressure Humidity
    00:00 +3°C° 0.5 mm 2 mps 746 mmHg 98%
    01:00 +3°C° 0.5 mm 2 mps 746 mmHg 98%
    02:00 +3°C° 0 mm 2 mps 746 mmHg 98%
    03:00 +4°C° 0.4 mm 2 mps 745 mmHg 98%
    04:00 +4°C° 0.4 mm 2 mps 745 mmHg 98%
    05:00 +4°C° 0.4 mm 2 mps 745 mmHg 98%
    06:00 +4°C° 0.4 mm 2 mps 744 mmHg 98%
    07:00 +4°C° 0.4 mm 2 mps 744 mmHg 98%
    08:00 +4°C° 0 mm 2 mps 744 mmHg 97%
    09:00 +4°C° 0.5 mm 2 mps 744 mmHg 97%
    10:00 +4°C° 0.5 mm 2 mps 744 mmHg 96%
    11:00 +3°C° 0.5 mm 3 mps 744 mmHg 96%
    12:00 +4°C° 0.9 mm 2 mps 744 mmHg 96%
    13:00 +4°C° 0.9 mm 2 mps 744 mmHg 96%
    14:00 +4°C° 0 mm 2 mps 744 mmHg 96%
    15:00 +3°C° 1.5 mm 2 mps 744 mmHg 96%
    16:00 +3°C° 1.5 mm 2 mps 744 mmHg 95%
    17:00 +3°C° 1.5 mm 2 mps 745 mmHg 95%
    18:00 +3°C° 0.8 mm 2 mps 745 mmHg 95%
    19:00 +3°C° 0.8 mm 2 mps 745 mmHg 95%
    20:00 +3°C° 0.8 mm 2 mps 746 mmHg 95%
    21:00 +3°C° 0.4 mm 2 mps 746 mmHg 95%
    22:00 +3°C° 0.4 mm 2 mps 747 mmHg 95%
    23:00 +3°C° 0.4 mm 2 mps 747 mmHg 95%

    Tomorrow, 22 November, Thursday

    Time Temperature Precipitation Wind Pressure Humidity
    00:00 +4°C° 0.2 mm 1 mps 747 mmHg 95%
    01:00 +4°C° 0.2 mm 1 mps 748 mmHg 95%
    02:00 +4°C° 0.2 mm 1 mps 748 mmHg 95%
    03:00 +4°C° 0.1 mm 1 mps 748 mmHg 95%
    04:00 +4°C° 0.1 mm 1 mps 748 mmHg 95%
    05:00 +4°C° 0.1 mm 1 mps 749 mmHg 95%
    06:00 +4°C° 0.1 mm 1 mps 749 mmHg 94%
    07:00 +4°C° 0.1 mm 1 mps 749 mmHg 94%
    08:00 +4°C° 0.1 mm 1 mps 749 mmHg 94%
    09:00 +3°C° 0.1 mm 2 mps 750 mmHg 93%
    10:00 +3°C° 0.1 mm 2 mps 750 mmHg 91%
    11:00 +4°C° 0.1 mm 2 mps 750 mmHg 90%
    12:00 +4°C° 0.1 mm 2 mps 750 mmHg 89%
    13:00 +4°C° 0.1 mm 2 mps 750 mmHg 89%
    14:00 +4°C° 0.1 mm 2 mps 750 mmHg 88%
    15:00 +4°C° 0.1 mm 2 mps 750 mmHg 89%
    16:00 +5°C° 0.1 mm 1 mps 751 mmHg 90%
    17:00 +4°C° 0.1 mm 1 mps 751 mmHg 91%
    18:00 +4°C° 0.1 mm 1 mps 751 mmHg 92%
    19:00 +4°C° 0.1 mm 1 mps 751 mmHg 92%
    20:00 +4°C° 0.1 mm 1 mps 752 mmHg 92%
    21:00 +4°C° 0 mm 1 mps 752 mmHg 92%
    22:00 +4°C° 0 mm 1 mps 752 mmHg 92%
    23:00 +4°C° 0 mm 1 mps 752 mmHg 92%

    Day after tomorrow, 23 November, Friday

    Time Temperature Precipitation Wind Pressure Humidity
    00:00 +4°C° 0 mm 1 mps 752 mmHg 92%
    01:00 +4°C° 0 mm 1 mps 752 mmHg 92%
    02:00 +4°C° 0 mm 1 mps 752 mmHg 91%
    03:00 +4°C° 0 mm 1 mps 752 mmHg 91%
    04:00 +2°C° 0 mm 0 mps 753 mmHg 91%
    05:00 +2°C° 0 mm 0 mps 753 mmHg 90%
    06:00 +2°C° 0 mm 0 mps 753 mmHg 90%
    07:00 +2°C° 0 mm 0 mps 753 mmHg 89%
    08:00 +2°C° 0 mm 0 mps 754 mmHg 89%
    09:00 +4°C° 0 mm 1 mps 754 mmHg 84%
    10:00 +5°C° 0 mm 1 mps 754 mmHg 80%
    11:00 +6°C° 0 mm 1 mps 754 mmHg 76%
    12:00 +7°C° 0 mm 1 mps 754 mmHg 73%
    13:00 +7°C° 0 mm 1 mps 754 mmHg 71%
    14:00 +8°C° 0 mm 1 mps 754 mmHg 68%
    15:00 +7°C° 0 mm 1 mps 754 mmHg 71%
    16:00 +7°C° 0 mm 1 mps 754 mmHg 73%
    17:00 +6°C° 0 mm 1 mps 754 mmHg 76%
    18:00 +5°C° 0 mm 1 mps 754 mmHg 77%
    19:00 +5°C° 0 mm 1 mps 754 mmHg 77%
    20:00 +5°C° 0 mm 1 mps 755 mmHg 78%
    21:00 +5°C° 0 mm 1 mps 755 mmHg 79%
    22:00 +4°C° 0 mm 1 mps 755 mmHg 79%
    23:00 +4°C° 0 mm 1 mps 755 mmHg 80%

    24 November, Saturday

    Time Temperature Precipitation Wind Pressure Humidity
    00:00 +4°C° 0 mm 1 mps 755 mmHg 81%
    01:00 +4°C° 0 mm 1 mps 754 mmHg 81%
    02:00 +4°C° 0 mm 1 mps 754 mmHg 82%
    03:00 +3°C° 0 mm 1 mps 754 mmHg 82%
    04:00 +3°C° 0 mm 1 mps 754 mmHg 82%
    05:00 +3°C° 0 mm 1 mps 753 mmHg 82%
    06:00 +3°C° 0 mm 1 mps 753 mmHg 81%
    07:00 +3°C° 0 mm 1 mps 753 mmHg 81%
    08:00 +3°C° 0 mm 1 mps 753 mmHg 80%
    09:00 +5°C° 0 mm 1 mps 753 mmHg 75%
    10:00 +6°C° 0 mm 1 mps 752 mmHg 70%
    11:00 +8°C° 0 mm 1 mps 752 mmHg 64%
    12:00 +9°C° 0 mm 1 mps 751 mmHg 63%
    13:00 +9°C° 0 mm 1 mps 751 mmHg 61%
    14:00 +10°C° 0 mm 1 mps 750 mmHg 59%
    15:00 +9°C° 0 mm 1 mps 750 mmHg 63%
    16:00 +8°C° 0 mm 1 mps 750 mmHg 67%
    17:00 +7°C° 0 mm 1 mps 749 mmHg 70%
    18:00 +7°C° 0 mm 1 mps 749 mmHg 70%
    19:00 +7°C° 0 mm 1 mps 749 mmHg 71%
    20:00 +6°C° 0 mm 1 mps 749 mmHg 71%
    21:00 +6°C° 0 mm 1 mps 749 mmHg 71%
    22:00 +6°C° 0 mm 1 mps 749 mmHg 72%
    23:00 +6°C° 0 mm 1 mps 749 mmHg 72%

    25 November, Sunday

    Time Temperature Precipitation Wind Pressure Humidity
    00:00 +6°C° 0 mm 1 mps 748 mmHg 73%
    01:00 +6°C° 0 mm 1 mps 748 mmHg 73%
    02:00 +5°C° 0 mm 1 mps 748 mmHg 74%
    03:00 +5°C° 0 mm 1 mps 747 mmHg 75%
    04:00 +5°C° 0 mm 1 mps 747 mmHg 75%
    05:00 +5°C° 0 mm 1 mps 747 mmHg 76%
    06:00 +5°C° 0 mm 1 mps 747 mmHg 76%
    07:00 +6°C° 0 mm 1 mps 746 mmHg 76%
    08:00 +6°C° 0 mm 1 mps 746 mmHg 76%
    09:00 +8°C° 0 mm 1 mps 746 mmHg 71%
    10:00 +9°C° 0 mm 1 mps 746 mmHg 66%
    11:00 +11°C° 0 mm 1 mps 746 mmHg 61%
    12:00 +12°C° 0 mm 1 mps 745 mmHg 59%
    13:00 +13°C° 0 mm 1 mps 744 mmHg 57%
    14:00 +14°C° 0 mm 1 mps 744 mmHg 55%
    15:00 +13°C° 0 mm 1 mps 743 mmHg 60%
    16:00 +11°C° 0 mm 1 mps 743 mmHg 64%
    17:00 +9°C° 0 mm 2 mps 743 mmHg 69%
    18:00 +9°C° 0 mm 2 mps 742 mmHg 70%
    19:00 +9°C° 0 mm 2 mps 742 mmHg 70%
    20:00 +9°C° 0 mm 2 mps 742 mmHg 71%
    21:00 +9°C° 0.1 mm 2 mps 742 mmHg 72%
    22:00 +9°C° 0.1 mm 2 mps 741 mmHg 72%
    23:00 +9°C° 0.1 mm 2 mps 741 mmHg 73%

    26 November, Monday

    Time Temperature Precipitation Wind Pressure Humidity
    00:00 +9°C° 0.4 mm 2 mps 740 mmHg 76%
    01:00 +8°C° 0.4 mm 2 mps 740 mmHg 78%
    02:00 +8°C° 0.4 mm 2 mps 739 mmHg 81%
    03:00 +8°C° 0.2 mm 2 mps 739 mmHg 83%
    04:00 +8°C° 0.2 mm 2 mps 738 mmHg 85%
    05:00 +7°C° 0.2 mm 2 mps 737 mmHg 87%
    06:00 +7°C° 0 mm 2 mps 737 mmHg 88%
    07:00 +8°C° 0 mm 1 mps 737 mmHg 88%
    08:00 +8°C° 0 mm 1 mps 737 mmHg 89%
    09:00 +10°C° 0 mm 1 mps 737 mmHg 84%
    10:00 +11°C° 0 mm 1 mps 736 mmHg 79%
    11:00 +12°C° 0 mm 1 mps 736 mmHg 74%
    12:00 +12°C° 0.1 mm 1 mps 736 mmHg 75%
    13:00 +12°C° 0.1 mm 1 mps 735 mmHg 76%
    14:00 +12°C° 0.1 mm 2 mps 735 mmHg 76%
    15:00 +12°C° 0.6 mm 1 mps 735 mmHg 81%
    16:00 +11°C° 0.6 mm 1 mps 735 mmHg 85%
    17:00 +10°C° 0.6 mm 1 mps 735 mmHg 90%
    18:00 +9°C° 0.9 mm 1 mps 735 mmHg 91%
    19:00 +9°C° 0.9 mm 1 mps 736 mmHg 93%
    20:00 +9°C° 0.9 mm 1 mps 736 mmHg 94%
    21:00 +9°C° 0.2 mm 1 mps 736 mmHg 94%
    22:00 +9°C° 0.2 mm 1 mps 736 mmHg 94%
    23:00 +9°C° 0.2 mm 1 mps 737 mmHg 94%
    Show more